Dewpoint
29 30 30 30 30 30 29 28 28 28 27 26 25 24 24 24 24 25 26 27 26 26 27 27 28 28 29 31 31 31 31 32 32 32 31 31 32 32 33 32 33 33 33 32 32 31 31 31 31 30 30 31 31 31 32 33 34 32 31 29 28 28 28 28 27 26 26 25 25
28 28 28 28 28 29 29 28 28 27 26 23 24 23 22 23 24 25 25 26 27 27 27 27 28 29 31 31 31 32 32 32 32 31 31 32 33 33 33 32 32 32 33 33 33 32 32 32 32 32 31 31 31 30 31 33 35 32 29 28 27 27 27 27 26 26 26 25 25
28 27 26 26 26 26 25 24 23 22 22 22 23 24 24 25 25 25 25 26 27 27 27 26 28 30 31 31 31 32 32 33 32 32 31 32 32 32 32 32 32 32 32 33 33 33 33 34 33 32 31 31 30 30 30 30 30 29 28 27 27 27 27 26 26 26 26 26 25
28 27 26 26 26 25 25 24 23 24 24 24 24 25 25 26 26 26 26 26 27 27 26 26 28 30 31 31 32 32 32 32 32 32 32 32 31 31 32 32 32 32 32 33 34 34 34 35 34 33 32 31 31 30 29 29 28 28 29 29 28 28 27 26 26 26 26 26 26
29 28 28 28 27 27 26 26 26 26 26 25 26 26 26 26 26 26 26 26 27 27 28 28 29 30 31 31 32 33 33 33 32 32 32 31 31 31 32 32 32 32 32 33 34 35 35 35 34 33 33 32 31 31 31 30 29 29 29 29 29 29 28 27 27 27 27 27 28
28 28 28 29 29 28 27 27 28 28 28 27 26 25 25 26 26 26 26 26 27 29 30 29 29 28 29 31 32 33 33 33 32 32 32 31 31 32 32 32 32 32 33 33 34 35 36 36 34 33 32 31 31 31 31 30 30 30 31 30 30 30 30 29 28 29 29 29 29
26 26 26 26 27 26 26 26 27 27 27 26 26 25 25 25 26 27 27 28 29 30 30 29 30 30 30 31 32 32 32 32 32 32 32 31 32 32 32 32 32 33 33 32 33 34 35 35 33 32 31 31 30 31 32 32 31 31 32 32 31 31 32 33 32 31 31 31 30
25 24 24 24 23 24 24 24 24 25 25 23 25 26 27 27 27 28 29 30 29 29 29 29 31 32 32 31 31 31 31 31 31 31 31 31 32 33 33 33 33 33 32 33 33 34 34 34 33 32 32 31 31 30 31 34 34 34 34 33 32 32 34 37 38 35 33 33 33
25 25 25 25 24 24 24 24 25 25 25 24 26 27 29 30 29 29 30 30 29 29 29 30 31 31 32 31 31 31 31 30 30 31 32 33 33 33 33 33 33 33 33 33 34 34 35 33 32 32 31 30 30 30 31 34 35 36 35 32 31 31 32 33 34 33 32 32 32
26 26 26 26 26 25 24 26 26 26 26 26 27 29 30 28 29 29 30 29 29 29 30 31 31 31 31 32 31 31 31 31 31 32 33 33 33 34 34 34 34 34 34 34 34 34 33 32 32 31 31 30 30 31 32 33 33 33 32 31 31 31 30 29 29 29 29 30 31
25 25 25 25 25 24 24 25 25 25 26 26 26 27 29 29 30 29 29 28 29 30 31 31 31 30 30 31 31 31 31 32 33 33 33 33 32 33 34 35 35 35 35 35 34 32 31 30 30 30 30 28 29 30 31 31 31 30 30 30 30 29 28 27 27 27 28 29 31
24 24 24 24 24 24 24 23 23 23 23 23 23 24 26 28 30 29 28 28 29 30 30 31 31 30 29 29 31 31 31 32 32 32 32 33 34 34 35 35 36 35 34 33 32 31 30 29 28 28 27 27 29 29 30 30 30 29 29 29 28 28 28 28 29 29 30 31 32
25 24 24 25 25 24 24 23 22 22 22 22 22 23 24 25 26 27 27 28 29 29 29 29 30 30 30 30 31 31 32 32 32 32 33 34 35 35 35 35 34 32 31 31 31 29 28 28 28 27 26 27 28 29 30 30 29 28 28 28 28 29 30 31 31 32 33 33 34
25 25 24 25 25 24 24 23 22 22 22 22 22 23 23 24 26 26 26 27 28 28 28 28 28 29 30 30 30 31 32 33 33 34 35 35 35 34 33 31 30 29 29 29 30 30 28 28 27 27 28 28 29 29 30 30 29 28 28 29 30 31 32 34 35 35 35 35 35
26 25 25 25 25 24 24 23 22 22 21 21 22 23 24 25 26 26 27 27 27 27 27 27 27 28 29 30 31 31 33 34 35 35 35 33 32 31 29 28 27 26 27 28 29 30 29 27 27 27 28 28 28 28 28 29 30 30 31 31 32 33 34 35 35 35 34 33 32
26 26 25 25 25 24 24 23 22 22 22 22 22 23 24 25 26 27 29 28 28 27 28 28 27 28 28 29 31 32 33 34 34 33 31 29 28 27 26 26 25 26 26 26 27 28 28 28 28 27 27 27 27 27 28 30 31 31 31 32 33 34 34 34 33 32 31 31 29
26 26 25 25 25 24 24 23 23 22 22 22 23 23 24 25 26 27 28 28 28 27 27 28 28 28 28 29 31 31 31 31 30 28 27 26 25 25 25 25 25 25 25 24 24 24 24 26 27 27 28 29 29 30 30 31 31 31 31 31 31 32 32 32 31 31 31 30 29
26 26 26 25 25 25 25 25 24 23 23 22 23 23 24 26 26 27 28 28 29 29 28 29 29 30 30 31 31 31 30 28 26 26 25 25 25 25 25 25 25 24 24 23 23 23 23 23 26 28 30 30 30 30 31 31 31 31 30 30 30 31 31 31 31 31 31 31 30
25 25 25 25 25 25 25 25 24 24 23 23 23 24 24 26 26 27 28 28 30 30 31 30 30 31 31 31 30 29 27 27 26 26 26 26 26 26 25 25 24 24 24 23 23 24 25 26 28 29 30 29 29 29 29 29 29 29 29 29 30 30 30 30 30 30 29 29 29
25 25 25 24 24 25 25 25 25 24 24 24 24 24 25 26 26 27 27 27 29 31 31 31 31 30 30 29 28 27 27 28 28 27 27 27 26 26 25 25 25 25 24 24 25 25 26 27 29 29 29 28 27 27 28 28 29 29 29 29 29 28 27 27 27 26 26 26 26
25 25 25 25 25 25 25 25 25 25 25 25 25 25 26 26 26 27 27 28 30 31 31 31 30 29 28 28 27 28 28 29 29 28 28 27 26 26 26 26 26 25 25 25 26 26 27 28 29 29 29 27 27 27 27 28 28 28 27 27 26 26 25 25 25 24 24 24 24
25 25 25 25 25 25 26 26 26 26 26 25 26 26 26 26 27 27 29 30 31 31 31 31 31 30 29 29 29 29 30 30 30 29 28 28 28 27 27 28 27 26 26 26 26 27 29 30 30 30 28 27 26 26 26 26 26 25 25 25 25 24 23 23 23 23 22 22 22
26 25 25 25 26 26 26 26 26 26 26 26 26 26 26 27 27 28 30 31 31 31 31 31 31 31 30 30 30 30 30 30 30 29 29 29 28 28 28 29 28 27 27 27 29 30 31 31 31 29 27 26 25 25 25 26 26 25 24 24 23 22 22 22 22 22 22 22 22
26 26 26 26 26 26 26 26 26 26 26 26 26 26 26 27 28 28 29 30 30 30 30 30 31 31 31 31 30 30 30 29 28 28 29 30 30 30 30 29 28 27 27 30 31 32 31 30 30 28 26 25 24 25 26 27 26 25 24 24 24 23 22 22 22 21 21 21 22
26 26 26 26 26 26 27 27 27 26 26 26 26 27 27 27 28 28 29 29 29 30 30 30 30 31 32 33 32 31 31 31 30 30 31 31 31 30 30 28 27 28 29 31 31 31 31 30 29 27 26 25 25 26 27 27 26 26 26 26 25 24 24 23 22 21 21 20 20
26 26 26 26 26 27 27 27 27 27 27 27 27 27 27 27 27 28 28 29 29 30 30 31 31 32 34 33 33 32 32 32 32 32 32 31 30 30 29 27 27 29 30 30 32 32 32 31 30 29 28 26 26 26 26 26 26 26 26 26 25 25 24 23 22 21 21 20 19
26 26 26 26 26 26 26 27 27 27 27 27 27 27 27 27 28 28 28 28 29 30 31 32 33 34 35 33 33 32 32 32 32 33 32 31 30 29 28 26 27 29 31 31 32 32 32 31 31 31 30 28 27 26 26 24 25 25 25 25 24 24 24 22 21 20 20 21 19
26 26 26 26 26 26 26 26 26 26 26 27 27 27 28 28 27 28 28 29 30 31 33 34 34 33 33 32 32 32 32 32 32 32 32 31 30 29 27 26 26 28 31 31 31 31 31 31 31 31 30 29 28 27 26 25 24 23 22 22 22 22 21 20 20 19 19 20 19
26 26 26 26 26 26 26 26 26 26 26 27 28 28 28 28 28 29 29 30 31 32 32 32 32 32 32 31 31 32 32 32 32 31 31 30 29 28 26 25 24 26 28 31 31 30 30 30 30 29 29 29 27 26 24 22 22 20 20 20 20 19 19 19 19 19 19 19 18
26 26 26 26 26 26 26 26 27 27 28 28 29 29 29 29 30 30 31 31 31 31 31 31 31 31 31 31 31 31 31 31 31 31 30 29 27 26 25 23 23 26 29 30 29 28 28 27 27 27 27 27 26 25 23 21 19 18 18 18 18 18 18 18 18 18 18 17 17
26 26 26 26 26 27 27 27 28 28 29 30 30 30 30 30 31 31 31 32 31 31 31 31 31 31 31 31 31 31 31 31 30 30 29 28 26 25 24 22 22 26 29 28 27 27 26 26 25 25 25 25 24 22 21 19 18 18 17 17 18 18 18 19 19 19 18 17 17
26 26 26 26 26 26 27 27 28 29 30 30 31 31 31 32 32 32 32 31 31 31 31 31 31 31 31 31 31 31 30 30 29 29 28 27 26 25 24 23 21 24 27 26 26 25 25 24 24 24 24 24 23 23 22 21 19 18 18 18 19 19 19 20 19 18 17 17 17
26 26 26 26 26 26 27 28 29 31 32 32 32 33 34 34 33 33 32 32 31 31 31 30 31 30 30 30 30 30 30 29 29 28 27 26 25 24 23 22 20 23 26 25 25 25 24 24 24 24 24 24 23 22 21 20 20 19 19 19 19 19 19 19 19 18 18 17 18
27 26 26 26 26 26 27 28 30 32 33 34 34 35 35 34 33 32 32 31 31 31 31 31 30 30 30 30 30 30 30 29 29 28 27 26 25 24 23 22 21 23 25 25 25 24 24 24 23 23 23 23 22 21 20 19 19 19 18 18 19 19 20 20 19 19 19 18 18
26 26 26 26 26 26 27 28 30 32 33 34 35 35 34 33 32 31 31 30 30 31 31 31 31 30 30 30 31 30 30 30 29 28 27 26 26 24 23 22 20 23 26 25 25 24 24 23 23 23 23 23 22 21 19 18 18 18 18 18 18 19 20 20 19 19 19 19 19
25 26 26 26 26 28 29 30 31 33 34 34 34 34 33 32 31 31 30 29 30 30 30 31 30 30 30 30 30 29 29 28 28 29 29 28 26 25 23 21 20 22 26 25 24 24 23 23 23 23 23 22 22 20 19 19 18 18 18 18 18 18 18 20 19 19 19 19 20
25 26 27 29 29 30 32 33 34 34 35 34 34 33 32 31 31 30 30 29 29 29 29 30 29 29 29 29 28 27 26 26 27 28 29 28 26 25 22 21 20 22 25 25 24 23 23 23 23 23 22 21 20 20 19 19 19 19 19 18 18 18 18 19 19 19 20 20 20
24 26 28 31 32 33 34 35 35 35 34 34 33 32 31 30 29 29 29 28 28 28 28 28 28 28 28 28 27 27 26 26 26 28 29 28 26 25 23 21 21 22 24 25 24 23 22 22 22 22 22 21 20 20 19 19 20 19 19 18 18 18 18 18 18 18 19 20 20
25 27 30 33 34 34 34 33 34 34 34 33 32 31 30 29 28 28 28 28 28 28 28 28 27 27 27 28 27 26 26 25 26 27 29 28 27 25 23 22 22 23 23 24 24 23 22 22 22 22 22 21 20 20 20 19 19 19 18 18 18 18 18 18 18 18 18 19 19
28 31 34 35 34 33 32 31 31 32 32 32 31 30 29 28 28 28 29 29 29 29 28 28 27 27 27 26 26 26 25 25 25 26 28 27 26 26 26 24 24 23 22 23 23 22 22 21 22 22 22 21 20 20 19 18 18 19 19 18 18 18 17 17 17 17 17 17 18
33 34 34 34 33 32 31 30 31 31 31 31 30 29 29 28 29 29 29 29 28 28 28 28 27 27 26 26 26 26 26 25 25 25 26 26 26 26 26 25 24 22 21 22 22 22 21 21 21 21 21 21 20 20 19 18 18 18 18 17 17 17 17 17 17 17 17 17 17